Regional Weather Roundup
Issued by NWS

Home | Current Version | Previous Version | Graphics & Text | Print | Product List | Glossary Off
Versions: 1 2 3 4 5 6 7 8 9 10 11 12 13 14 15 16 17 18 19 20 21 22 23 24 25 26 27 28 29 30 31 32 33 34 35 36 37 38 39 40 41 42 43 44 45 46 47 48 49 50

000
ASUS43 KTOP 170359
RWRKS

WEATHER ROUNDUP FOR KANSAS
NATIONAL WEATHER SERVICE GOODLAND KS
1100 PM CDT WED AUG 16 2017

NOTE:  "FAIR" INDICATES FEW OR NO CLOUDS BELOW 12,000 FEET WITH NO
SIGNIFICANT WEATHER AND/OR OBSTRUCTIONS TO VISIBILITY.

KSZ001>006-013>018-027>032-041>047-170500-
NORTHWEST KANSAS

CITY           SKY/WX    TMP DP  RH WIND       PRES   REMARKS
GOODLAND       CLEAR     59  56  89 N8        30.08R
HAYS           CLEAR     66  61  84 N9        29.99R
HILL CITY      CLEAR     65  62  90 CALM      30.00R
RUSSELL        CLEAR     68  60  75 N9        29.97R
$$

KSZ061>065-074>080-084>089-170500-
SOUTHWEST KANSAS

CITY           SKY/WX    TMP DP  RH WIND       PRES   REMARKS
DODGE CITY     CLEAR     66  57  72 N7        30.00R
ELKHART          N/A     70  57  63 N5          N/A
GARDEN CITY    CLEAR     68  54  60 NE13      30.02R
GREAT BEND     CLEAR     70  63  78 N7        29.97R
LIBERAL        CLEAR     69  63  81 NW5       30.03R
$$

KSZ066>073-081>083-090>101-170500-
SOUTHEAST KANSAS

CITY           SKY/WX    TMP DP  RH WIND       PRES   REMARKS
CHANUTE        CLOUDY    71  69  93 S10       29.90R
COFFEYVILLE    RAIN      69  68  96 SE7       29.91F
HUTCHINSON     CLOUDY    67  64  90 CALM      29.92R
MEDICINE LODGE   N/A     72  65  78 CALM      29.94R
NEWTON         CLOUDY    72  67  84 S3        29.93R
PARSONS        LGT RAIN  70  67  90 S8        29.94R
WICHITA INTL   CLOUDY    72  69  90 S5        29.91R
WICHITA JABRA  CLOUDY    72  71  97 S3        29.92R
WINFIELD       CLOUDY    72  72 100 CALM      29.93R
$$

KSZ007>012-019>026-033>040-048>060-102>105-170500-
NORTHEAST KANSAS

CITY           SKY/WX    TMP DP  RH WIND       PRES   REMARKS
CONCORDIA      CLEAR     67  65  93 NW7       29.93R
EMPORIA        CLOUDY    71  70  96 S6        29.89S
LAWRENCE       CLOUDY    72  72 100 SE7       29.84F
MANHATTAN      CLOUDY    70  68  93 S3        29.88R
OLATHE IND     CLOUDY    68  67  96 S8        29.87S
OLATHE EXE     CLOUDY    67  67 100 S8        29.86F
SALINA         CLEAR     73  65  75 NW6       29.91R
TOPEKA BILLARD CLOUDY    74  68  81 SW6       29.84F
TOPEKA FORBES  CLOUDY    74  71  91 SW7       29.86S
$$




USA.gov is the U.S. government's official web portal to all federal, state and local government web resources and services.